[keps] orb09344.2l.amsat

Ray Hoad ray.hoad at mypbmail.com
Thu Dec 10 18:55:16 PST 2009


SB KEPS @ AMSAT  $ORB09344.N
2Line Orbital Elements 09344.AMSAT

HR AMSAT ORBITAL ELEMENTS FOR AMATEUR SATELLITES IN NASA FORMAT
FROM WA5QGD FORT WORTH,TX December 10, 2009
Send Subscribe/unsubscribe to KEPS at http://www.amsat.org/mailman/listinfo/keps
BID: ORB09344.N

DECODE 2-LINE ELSETS WITH THE FOLLOWING KEY:
1 AAAAAU 00  0  0 BBBBB.BBBBBBBB  .CCCCCCCC  00000-0  00000-0 0  DDDZ
2 AAAAA EEE.EEEE FFF.FFFF GGGGGGG HHH.HHHH III.IIII JJ.JJJJJJJJKKKKKZ
KEY: A-CATALOGNUM B-EPOCHTIME C-DECAY D-ELSETNUM E-INCLINATION F-RAAN
G-ECCENTRICITY H-ARGPERIGEE I-MNANOM J-MNMOTION K-ORBITNUM Z-CHECKSUM

TO ALL RADIO AMATEURS BT

AO-07
1 07530U 74089B   09344.62039451 -.00000027  00000-0  10000-3 0  6512
2 07530 101.4135 002.7312 0011832 283.8784 076.0968 12.53577265604821
FO-29
1 24278U 96046B   09343.63850766  .00000028  00000-0  67134-4 0  1951
2 24278 098.5232 193.8538 0349814 255.5290 100.6800 13.52947113657478
SO-33
1 25509U 98061B   09344.75394707 -.00000006  00000-0 -11695-4 0  6055
2 25509 031.4286 134.0606 0353910 082.2837 281.7818 14.28272887581095
RS-22
1 27939U 03042A   09344.68143357  .00000033  00000-0  15141-4 0  9594
2 27939 097.9173 212.8521 0012666 297.5612 062.4298 14.63364356331382
VO-52
1 28650U 05017B   09344.65354854 -.00000057  00000-0 -69959-6 0  3840
2 28650 097.7217 040.1796 0027326 170.6757 189.5004 14.81652456248773
SO-67
1 35870U 09049F   09344.79474714  .00000341  00000-0  17486-4 0  2494
2 35870 097.3606 033.2408 0011912 006.8146 126.7752 15.22880313 12797
UO-11
1 14781U 84021B   09343.55493401 -.00000211  00000-0 -20831-4 0  1251
2 14781 098.0834 029.4387 0009690 126.0865 234.1265 14.79751161383762
AO-16
1 20439U 90005D   09344.44345798 -.00000004  00000-0  13875-4 0  7706
2 20439 098.3062 305.0598 0011154 012.2297 347.9161 14.31841547 38373
LO-19
1 20442U 90005G   09344.05246595  .00000003  00000-0  16585-4 0  6788
2 20442 098.2678 311.2564 0011839 009.0660 351.0733 14.32075328 38489
AO-27
1 22825U 93061C   09343.99999726 -.00000002  00000-0  15891-4 0  4049
2 22825 098.4640 292.0933 0009378 106.1669 254.0535 14.29280500845020
IO-26
1 22826U 93061D   09344.86906615  .00000002  00000-0  17318-4 0  1404
2 22826 098.4555 293.6121 0009813 097.8338 262.3962 14.29534184845256
GO-32
1 25397U 98043D   09344.82230806 -.00000071  00000-0 -13595-4 0   605
2 25397 098.3173 357.6192 0002175 094.6356 265.5056 14.23167500593252
NO-44
1 26931U 01043C   09343.53950572  .00000004  00000-0  33895-4 0  3332
2 26931 067.0539 332.5799 0007204 269.6160 090.4124 14.29576141427647
SO-50
1 27607U 02058C   09344.07717404 -.00000086  00000-0  82995-5 0   520
2 27607 064.5576 210.8886 0045873 157.7421 202.5663 14.71480282374559
CO-55
1 27844U 03031E   09344.48903894  .00000018  00000-0  28613-4 0  7303
2 27844 098.7117 351.1652 0010145 000.2487 359.8700 14.20671676334298
CO-57
1 27848U 03031J   09344.49139325  .00000020  00000-0  29534-4 0  6820
2 27848 098.7176 350.2383 0009815 005.5877 354.5427 14.20469316334251
AO-51
1 28375U 04025K   09343.54308392  .00000022  00000-0  19643-4 0  5525
2 28375 098.0527 342.9475 0084132 313.7019 045.7219 14.40662134286201
CO-56
1 28941U 06005C   09297.68475575  .14491492  29743-5  25760-3 0  5565
2 28941 098.0955 138.9518 0011688 319.8691 040.7485 16.46998778207909
GENESAT1
1 29655U 06058C   09344.88390773  .00016253  00000-0  12937-3 0  8857
2 29655 040.0201 152.6975 0005081 006.7957 353.2929 15.70694619170211
CP3
1 31129U 07012N   09344.77255016  .00000086  00000-0  30140-4 0  3865
2 31129 097.9669 029.1780 0103382 098.0011 263.2926 14.52188825140512
CO-65
1 32785U 08021C   09343.86268420 -.00000122  00000-0 -86992-5 0  5465
2 32785 097.9256 046.1709 0015009 175.9441 184.1890 14.81551940 87451
KKS-1
1 33493U 09002B   09344.80821389  .00000276  00000-0  42827-4 0   175
2 33493 098.0704 097.9516 0020716 033.3030 326.9481 14.80794849 47601
SOHLA-1
1 33496U 09002E   09344.88566025  .00000070  00000-0  20083-4 0  9709
2 33496 098.0491 091.5626 0007757 081.8543 278.3536 14.69459085 47222
NOAA-10
1 16969U 86073A   09344.10196290  .00000017  00000-0  24936-4 0  8684
2 16969 098.6765 009.6594 0013007 045.7485 314.4759 14.27401248208603
NOAA-11
1 19531U 88089A   09344.14826873  .00000222  00000-0  13770-3 0  8829
2 19531 098.7783 071.3402 0011348 330.8965 029.1565 14.14910909 94404
NOAA-12
1 21263U 91032A   09344.55473262  .00000026  00000-0  30017-4 0  3664
2 21263 098.7702 352.6990 0012505 358.9761 001.1389 14.25606165965520
MET-3/5
1 21655U 91056A   09343.94164257  .00000051  00000-0  10000-3 0 07434
2 21655 082.5507 082.3436 0014551 099.9442 260.3324 13.17021063880760
MET-2/21
1 22782U 93055A   09344.84203413 -.00000097  00000-0 -10089-3 0  6400
2 22782 082.5487 041.8720 0021641 207.8108 152.1890 13.83640789822039
OKEAN-4
1 23317U 94066A   09343.83116649  .00000133  00000-0  13455-4 0   954
2 23317 082.5396 170.5783 0022846 142.2580 218.0277 14.82744800818390
NOAA-14
1 23455U 94089A   09344.39378575  .00000050  00000-0  49707-4 0  8586
2 23455 098.8960 061.3252 0010085 054.6870 305.5259 14.13775211770829
NOAA-15
1 25338U 98030A   09349.44666129  .00000029  00000-0  30857-4 0  9611
2 25338 098.6024 334.8444 0009573 249.5173 110.4595 14.24797098602584
RESURS
1 25394U 98043A   09344.64226321 -.00000023  00000-0  77911-5 0  3780
2 25394 098.3202 007.8555 0002372 062.3524 297.7896 14.24191292593511
FENGYUN1
1 25730U 99025A   09344.16301307  .00001139  00000-0  69167-3 0  9203
2 25730 098.7728 309.2015 0023326 073.9289 286.4436 14.08124110545081
OKEAN-0
1 25860U 99039A   09344.51506740  .00000006  00000-0  82608-5 0  8588
2 25860 097.8088 318.9047 0001117 048.0779 312.0537 14.73601507559116
NOAA-16
1 26536U 00055A   09349.48555968  .00000091  00000-0  74663-4 0  9650
2 26536 099.1786 357.5612 0011208 129.4119 230.7550 14.12541947475895
NOAA-17
1 27453U 02032A   09349.48265641 -.00000001  00000-0  17914-4 0  7221
2 27453 098.4619 042.0782 0011036 319.5255 040.5056 14.24113179388556
NOAA-18
1 28654U 05018A   09344.50909731 -.00000129  00000-0 -46853-4 0  1449
2 28654 098.9283 286.5396 0013742 223.3081 136.7008 14.11308493234829
NOAA-19
1 33591U 09005A   09344.52713352  .00000239  00000-0  15661-3 0  3522
2 33591 098.7685 285.8654 0014969 103.1176 257.1623 14.11009166 43307
HUBBLE
1 20580U 90037B   09343.60367032  .00000302  00000-0  10356-4 0  4876
2 20580 028.4710 037.3903 0003225 346.8092 013.2428 15.00863663876232
ISS
1 25544U 98067A   09344.87415091  .00009658  00000-0  63587-4 0  1482
2 25544 051.6444 118.7669 0008007 067.1016 071.3090 15.76439945633791
CO-58
1 28895U 05043F   09342.23312638 -.00000042  00000-0  63087-6 0  4600
2 28895 098.0372 227.7430 0018247 160.6581 199.5292 14.59821754219125
FALCON
1 30776U 07006E   09344.75982071  .00000350  00000-0  28252-4 0  7196
2 30776 035.4325 108.0132 0002091 349.0918 010.9752 15.03389258151687
MAST
1 31126U 07012K   09344.12618289  .00000068  00000-0  25535-4 0  7514
2 31126 097.9661 030.6500 0095737 093.4770 267.7397 14.53537334140596
CAPE1
1 31130U 07012P   09344.13146678  .00000022  00000-0  15567-4 0  7635
2 31130 097.9679 028.4532 0103898 100.3387 260.9541 14.52113203140220
COMPASS
1 32787U 08021E   09344.22835410  .00000562  00000-0  77951-4 0  5399
2 32787 097.9219 046.3632 0015771 176.4660 183.6663 14.81712810 87518
AAUSAT2
1 32788U 08021F   09344.18132879  .00000116  00000-0  21443-4 0  5327
2 32788 097.9218 046.4052 0015489 178.1106 182.0166 14.81840681 87514
DO-64
1 32789U 08021G   09344.74181159  .00000411  00000-0  58573-4 0  5495
2 32789 097.9275 047.2490 0015699 174.4347 185.7043 14.81882949 87597
CO-66
1 32791U 08021J   09344.22474173  .00000392  00000-0  56599-4 0  5294
2 32791 097.9234 046.3901 0016040 174.8918 185.2454 14.81525487 87470
RS-30
1 32953U 08025A   09343.57657706  .00000010  00000-0  00000-0 0 04737
2 32953 082.4995 147.5765 0019165 154.6018 205.6009 12.43003179070181
TACSAT-3
1 35001U 09028A   09344.23473825  .00002929  00000-0  77542-4 0  1647
2 35001 040.4567 267.3116 0022732 028.4750 331.7302 15.39748427 31480
PHARMSAT
1 35002U 09028B   09344.91298205  .00002227  00000-0  58969-4 0  1575
2 35002 040.4685 262.0795 0025788 038.4193 321.8463 15.40451420 31599
HAWKSAT1
1 35003U 09028C   09343.91187513  .00004957  00000-0  11913-3 0  1630
2 35003 040.4637 266.6307 0025432 035.0542 325.1939 15.41650077 31464
CP6
1 35004U 09028D   09343.90393848  .00005535  00000-0  13154-3 0  1575
2 35004 040.4649 266.5770 0024814 035.6723 324.5746 15.41851812 31459
AEROCUB3
1 35005U 09028E   09344.90273128  .00007625  00000-0  18007-3 0  1625
2 35005 040.4756 261.1790 0025002 039.5380 320.7270 15.41661825 31604
DRAGNSAT
1 35690U 09038B   09344.76570910  .00045171  00000-0  15282-3 0  1359
2 35690 051.6363 109.8599 0003869 243.9995 116.0617 15.89459764 21123
POLLUX
1 35693U 09038E   09344.77090188  .00040043  00000-0  14572-3 0  1429
2 35693 051.6371 110.6637 0002793 189.4886 170.6010 15.88055698 21081
CASTOR
1 35694U 09038F   09344.78407903  .00016740  00000-0  76455-4 0  1266
2 35694 051.6392 112.3061 0003740 172.6969 187.4067 15.83925008 21066
METEOR-M
1 35865U 09049A   09344.32698875  .00000176  00000-0  10000-3 0   749
2 35865 098.7872 034.2180 0002269 169.6718 190.4452 14.21828127 11884
/EX


More information about the Keps mailing list